www.pogodaiklimat.ru

Погода и климат >> Архив погоды >> Россия >> Якутия >> Джикимда


АРХИВ ПОГОДЫ в Джикимде

Время (UTC), дата Ветер
(напр.,м/с)
 
Видим.   Явления Облачность Т
(С)
Тd
(С)
f
(%)
Тe
(С)
Тes
(С)
Комфортность P
(гПа)
Po
(гПа)
Тmin
(С)
Tmax
(С)
R
(мм)
R24
(мм)
S
(см)
21 10.06 штиль 0 50 км 10/0
[Ac trans Ci sp]
+9.0 +8.4 96 +8 +9 1002.5 981.6
00 11.06 штиль 0 50 км 10/3 1000 м
[Sc Ac As]
+14.0 +11.4 84 +14 +16 1001.8 981.2 +7.5
03 11.06 штиль 0 50 км 10/10 1000 м
[Sc]
+17.4 +11.6 69 +17 +17 1000.5 980.2
06 11.06 С 2 50 км 10/10 1000 м
[Sc]
+22.8 +13.7 56 +26 +26 жарко 998.3 978.4
09 11.06 С 1 50 км 10/3 1000 м
[Sc Ac trans Ci fib]
+26.2 +14.1 47 +28 +30 жарко 996.2 976.5
12 11.06 С 1 50 км 10/0
[Ac trans Ci fib]
+23.5 +12.3 49 +25 +25 комфорт 994.6 974.8 +27.1
15 11.06 С 1 50 км 3/0
[Ci fib]
+18.3 +13.0 71 +20 +20 993.7 973.5
18 11.06 штиль 0 50 км 3/0
[Ci fib]
+11.0 +8.6 85 +10 +10 992.8 972.3
21 11.06 СВ 1 50 км 10/3 1000 м
[Sc Ac trans Ci fib]
+11.2 +10.2 94 +11 +11 992.8 972.3
00 12.06 З 1 50 км дым 10/6 1000 м
[Sc Ac trans Ci fib]
+18.4 +13.7 74 +20 +22 993.7 973.5 +8.0
03 12.06 СЗ 3 10 км слаб. ливневой дождь 10/10 600 м
[Cb cap]
+16.1 +14.7 91 +16 +16 997.3 977.0
06 12.06 В 2 10 км слаб. ливневой дождь 10/10 600 м
[Cb cap]
+14.3 +13.4 94 +14 +14 1000.9 980.3
09 12.06 штиль 0 10 км дождь {ливн. осадки} 10/10 600 м
[Frnb Ns]
+13.7 +12.6 93 +13 +13 1003.3 982.6
12 12.06 В 1 10 км дождь {ливн. осадки} 10/10 600 м
[Frnb Ns]
+12.0 +11.4 96 +12 +12 1006.0 985.2 +22.5 14
15 12.06 Ю 1 50 км {дождь} 10/0
[Ac und]
+10.1 +9.9 99 +9 +9 1008.3 987.3
18 12.06 штиль 0 500 м туман {дождь} ?/? +9.5 +9.5 100 +9 +9 1010.1 989.0
21 12.06 штиль 0 500 м туман ?/? +7.6 +7.6 100 +6 +6 1012.5 991.2
00 13.06 СВ 1 50 км {туман} 3/0
[Ac trans]
+11.8 +8.4 80 +12 +19 1013.3 992.3 +7.1 0.1
03 13.06 СЗ 1 50 км 8/8 1000 м
[Sc]
+15.3 +3.5 45 +16 +19 1012.5 991.8
06 13.06 С 1 50 км 6/6 1000 м
[Sc]
+17.6 +4.6 42 +19 +25 1011.6 991.1
09 13.06 С 2 50 км 9/3 1000 м
[Sc Ac trans]
+18.7 +4.3 39 +20 +21 1011.1 990.6
12 13.06 С 1 50 км 10/4 1000 м
[Sc Ac trans Ci fib]
+15.7 +5.5 51 +17 +17 1011.7 991.0 +19.8
15 13.06 З 1 50 км 6/3 1000 м
[Sc Ci fib]
+10.0 +6.4 78 +10 +10 1012.7 991.6
18 13.06 штиль 0 50 км ясно +2.8 +1.5 91 +2 +2 1014.8 993.0
21 13.06 штиль 0 500 м туман ?/? +2.6 +2.6 100 +1 +1 1016.0 994.2
00 14.06 СЗ 1 50 км {туман} ясно +10.0 +6.4 78 +10 +19 1015.1 993.9 +0.4
03 14.06 СВ 1 50 км 3/1 1000 м
[Sc Ci fib]
+19.4 +5.6 40 +21 +35 комфорт 1013.0 992.5
06 14.06 СВ 2 50 км ясно +21.2 +4.7 34 +22 +34 комфорт 1011.1 990.9
09 14.06 штиль 0 50 км ясно +23.0 +5.3 32 +23 +29 комфорт 1009.7 989.5
12 14.06 штиль 0 50 км ясно +19.3 +9.8 54 +20 +20 1009.3 988.9 +24.1 0.0
15 14.06 С 2 50 км 3/0
[Ac trans]
+14.2 +8.4 68 +14 +14 1009.9 989.1
18 14.06 С 1 50 км 4/0
[Ac trans]
+9.3 +7.0 86 +9 +9 1010.6 989.5
21 14.06 штиль 0 50 км ясно +6.8 +5.7 93 +6 +7 1009.5 988.1
00 15.06 С 1 50 км 3/0
[Ci fib]
+13.6 +8.9 73 +14 +22 1007.8 987.1 +5.8
03 15.06 СЗ 1 50 км 6/0
[Ci fib]
+22.8 +8.3 39 +24 +39 комфорт 1005.7 985.6
06 15.06 СЗ 2 50 км 9/1 1000 м
[Sc Ci fib]
+27.2 +8.8 31 +27 +36 жарко 1003.7 984.0
09 15.06 штиль 0 50 км 3/0
[Ci fib]
+28.3 +9.2 30 +28 +34 жарко 1002.9 983.2
12 15.06 штиль 0 50 км ясно +23.1 +12.0 50 +26 +26 жарко 1003.2 983.2 +29.3
15 15.06 штиль 0 50 км ясно +12.2 +11.1 93 +12 +12 1004.3 983.5
18 15.06 штиль 0 50 км ясно +6.8 +5.9 94 +6 +6 1005.6 984.3
21 15.06 ЮВ 1 50 км 4/0
[Ci fib]
+6.8 +6.1 95 +6 +7 1006.5 985.2
00 16.06 СЗ 1 50 км 1/0
[Ci fib]
+14.0 +9.3 73 +14 +23 1005.9 985.2 +4.6
03 16.06 СЗ 1 50 км ясно +24.2 +11.9 46 +26 +43 жарко 1004.7 984.7
06 16.06 С 1 50 км 3/0
[Ci fib]
+29.8 +10.9 31 +30 +44 жарко 1003.6 984.0
09 16.06 С 1 50 км 4/1 1000 м
[Sc Ci fib]
+29.6 +9.8 29 +29 +34 жарко 1003.3 983.7
12 16.06 СВ 1 50 км 8/0
[Ci fib]
+25.9 +9.4 35 +26 +27 жарко 1004.6 984.7 +31.1
15 16.06 З 1 50 км 10/0
[Ci fib]
+17.2 +10.0 63 +18 +18 1007.3 986.9
18 16.06 З 1 50 км 10/0
[Ci fib]
+9.2 +8.2 93 +8 +8 1009.7 988.6
21 16.06 ЮЗ 1 50 км 10/0
[Ci fib]
+8.3 +7.5 95 +7 +8 1010.9 989.6
00 17.06 СЗ 1 50 км ясно +16.2 +10.1 67 +17 +26 1010.3 989.6 +5.5
03 17.06 В 1 50 км 3/3 1000 м
[Sc]
+25.7 +9.3 35 +26 +38 жарко 1008.2 988.2
06 17.06 С 1 50 км 4/4 1000 м
[Sc]
+28.6 +8.9 29 +28 +37 жарко 1007.1 987.4
09 17.06 Ю 2 50 км 1/1 1000 м
[Sc]
+30.2 +8.3 25 +29 +33 жарко 1006.0 986.4
12 17.06 СВ 1 50 км ясно +26.4 +10.1 36 +27 +27 жарко 1006.3 986.4 +31.0
15 17.06 С 1 50 км ясно +14.1 +9.4 73 +15 +15 1008.3 987.5
18 17.06 С 1 50 км ясно +8.6 +7.5 93 +8 +8 1009.8 988.5

 

Местоположение метеостанции Джикимда (Якутия, Россия): широта 59.02 долгота 121.70 высота над уровнем моря 175 м.

В архиве по умолчанию представлена погода в Джикимде за последнюю неделю. Архивные данные за месяц целиком и за предыдущие месяцы, начиная с января 2011 года, Вы можете получить, выбрав интересующий диапазон дат из раскрывающегося списка и нажав кнопку "Ввод!".


*Определитесь, кто Вы:
робот инопланетянин человек

Внимание! Время в таблицах - всемирное. Для получения местного времени необходимо прибавить поправку, которая равна 9 ч.

Смотрите также архив погоды в соседних городах и на ближайших метеорологических станциях:

Погода в Тяне (Якутия, Россия) (109 км)
Погода в Суон-Тите (Якутия, Россия) (157 км)
Погода в Олекминске (Якутия, Россия) (170 км)
Погода в Алдане (Якутия, Россия) (213 км)
Погода в Маче (Якутия, Россия) (253 км)
Погода в Килиере (Якутия, Россия) (253 км)
Погода в Томмоте (Якутия, Россия) (258 км)
Погода в Усть-Нюкже (Амурская область, Россия) (272 км)
Погода в Перевозе (Иркутская область, Россия) (275 км)
Погода в Исити (Якутия, Россия) (283 км)

Пояснения к столбцам:

Ветер - указаны скорость ветра в м/с - средняя за 10 мин, порывы в срок и между сроками (в фигурных скобках) и направление, откуда дует ветер: С - северный, СВ - северо-восточный, В - восточный, ЮВ - юго-восточный, Ю - южный, ЮЗ - юго-западный, З - западный, СЗ - северо-западный.
Видимость - горизонтальная дальность видимости в метрах или километрах. При видимости от 1 до 10 км при отсутствии осадков обычно наблюдается дымка, при ухудшении видимости до 1 км и менее - туман. В сухую погоду видимость может ухудшаться дымом, пылью или мглою.
Явления - указаны атмосферные явления, наблюдавшиеся в срок или в последний час перед сроком; фигурными скобками обозначены явления, наблюдавшиеся между сроками (за 1-3 часа до срока); квадратными скобками обозначены град или гололедные отложения с указанием их диаметра в мм.
Облачность - указаны через наклонную черту общая и нижняя облачность в баллах и высота нижней границы облаков в метрах; квадратными скобками обозначены формы облаков: Ci - перистые, Cs - перисто-слоистые, Cc - перисто-кучевые, Ac - высококучевые, As - высокослоистые, Sc - слоисто-кучевые, Ns - слоисто-дождевые, Cu - кучевые, Cb - кучево-дождевые. Подробнее классификацию облаков см. в Атласе облаков (PDF).
T - Температура воздуха - температура, измеренная на высоте 2 м над землей.
Td - Температура точки росы - температура, при понижении до которой содержащийся в воздухе водяной пар достигнет насыщения.
f - Относительная влажность воздуха - влажноcть воздуха, измеренная на высоте 2 м над землей.
Te - Эффективная температура - температура, которую ощущает одетый по сезону человек в тени. Характеристика душности погоды. При расчете учитывается влияние влажности воздуха и скорости ветра на теплоощущения человека.
Tes - Эффективная температура на солнце - температура, которую ощущает человек, с поправкой на солнечный нагрев. Характеристика знойности погоды. Зависит от высоты солнца над горизонтом, облачности и скорости ветра. Ночью, в пасмурную погоду, а также при ветре 12 м/с и более поправка равна нулю.
P - Атмосферное давление - приведенное к уровню моря атмосферное давление.
Po - Атмосферное давление - измеренное на уровне метеостанции атмосферное давление.
Tmin - Минимальная температура - минимум температуры воздуха на высоте 2 м над землей.
Tmax - Максимальная температура - максимум температуры воздуха на высоте 2 м над землей.
R - Количество осадков - Количество выпавших осадков за период времени, мм. При наведении курсора мыши на число - период времени, за который выпало указанное количество осадков.
R24 - Количество осадков - Количество выпавших осадков за 24 часа, мм.
S - Снежный покров - Высота снежного покрова, см. При наведении курсора мыши на число - состояние снежного покрова и степень покрытия местности в баллах.